When you browse on this site, cookies collect data to enhance your experience and personalize the content and advertising you see.
Visit our Privacy Policy to learn more. By continuing to use the site, you agree to this use of cookies and data.

Hourly Weather Vorobi

Today, 13 July, Monday

Time Temperature Precipitation Wind Pressure Humidity
00:00 +11°C° 0 mm 1 mps 743 mmHg 97%
01:00 +10°C° 0 mm 1 mps 743 mmHg 96%
02:00 +11°C° 0 mm 1 mps 743 mmHg 98%
03:00 +11°C° 0.1 mm 1 mps 743 mmHg 97%
04:00 +11°C° 0.1 mm 0 mps 742 mmHg 96%
05:00 +11°C° 0.1 mm 0 mps 742 mmHg 96%
06:00 +12°C° 0 mm 0 mps 742 mmHg 93%
07:00 +13°C° 0 mm 0 mps 742 mmHg 90%
08:00 +14°C° 0 mm 0 mps 742 mmHg 86%
09:00 +15°C° 0.3 mm 1 mps 742 mmHg 85%
10:00 +16°C° 0.3 mm 1 mps 742 mmHg 84%
11:00 +16°C° 0.3 mm 1 mps 742 mmHg 83%
12:00 +18°C° 0.6 mm 1 mps 742 mmHg 84%
13:00 +18°C° 0.6 mm 1 mps 742 mmHg 84%
14:00 +17°C° 0.6 mm 2 mps 741 mmHg 85%
15:00 +18°C° 0.3 mm 1 mps 741 mmHg 83%
16:00 +18°C° 0.3 mm 1 mps 741 mmHg 81%
17:00 +18°C° 0.3 mm 1 mps 741 mmHg 80%
18:00 +16°C° 0.1 mm 1 mps 741 mmHg 83%
19:00 +16°C° 0.1 mm 1 mps 740 mmHg 85%
20:00 +15°C° 0.1 mm 1 mps 740 mmHg 88%
21:00 +14°C° 0 mm 1 mps 740 mmHg 89%
22:00 +13°C° 0 mm 1 mps 740 mmHg 90%
23:00 +12°C° 0 mm 1 mps 740 mmHg 91%

Tomorrow, 14 July, Tuesday

Time Temperature Precipitation Wind Pressure Humidity
00:00 +11°C° 0 mm 1 mps 740 mmHg 92%
01:00 +9°C° 0 mm 2 mps 740 mmHg 92%
02:00 +9°C° 0 mm 2 mps 740 mmHg 93%
03:00 +9°C° 0 mm 2 mps 740 mmHg 93%
04:00 +9°C° 0 mm 2 mps 740 mmHg 93%
05:00 +10°C° 0 mm 2 mps 740 mmHg 93%
06:00 +12°C° 0 mm 2 mps 740 mmHg 86%
07:00 +13°C° 0 mm 3 mps 740 mmHg 80%
08:00 +16°C° 0 mm 3 mps 741 mmHg 74%
09:00 +17°C° 0 mm 3 mps 740 mmHg 66%
10:00 +19°C° 0 mm 3 mps 740 mmHg 59%
11:00 +20°C° 0 mm 4 mps 740 mmHg 52%
12:00 +21°C° 0 mm 4 mps 740 mmHg 50%
13:00 +21°C° 0 mm 4 mps 740 mmHg 49%
14:00 +22°C° 0 mm 4 mps 740 mmHg 47%
15:00 +21°C° 0 mm 4 mps 740 mmHg 49%
16:00 +21°C° 0 mm 4 mps 739 mmHg 51%
17:00 +20°C° 0 mm 4 mps 739 mmHg 52%
18:00 +19°C° 0 mm 4 mps 739 mmHg 59%
19:00 +17°C° 0 mm 3 mps 739 mmHg 65%
20:00 +16°C° 0 mm 3 mps 738 mmHg 71%
21:00 +14°C° 0 mm 3 mps 738 mmHg 73%
22:00 +13°C° 0 mm 3 mps 738 mmHg 75%
23:00 +13°C° 0 mm 3 mps 738 mmHg 77%

Day after tomorrow, 15 July, Wednesday

Time Temperature Precipitation Wind Pressure Humidity
00:00 +12°C° 0 mm 3 mps 738 mmHg 76%
01:00 +12°C° 0 mm 3 mps 738 mmHg 75%
02:00 +11°C° 0 mm 3 mps 739 mmHg 74%
03:00 +11°C° 0 mm 3 mps 739 mmHg 75%
04:00 +11°C° 0 mm 3 mps 739 mmHg 76%
05:00 +11°C° 0 mm 3 mps 738 mmHg 77%
06:00 +12°C° 0 mm 3 mps 739 mmHg 75%
07:00 +13°C° 0 mm 4 mps 739 mmHg 73%
08:00 +14°C° 0 mm 4 mps 739 mmHg 70%
09:00 +15°C° 0 mm 4 mps 739 mmHg 65%
10:00 +16°C° 0 mm 5 mps 739 mmHg 60%
11:00 +19°C° 0 mm 5 mps 739 mmHg 55%
12:00 +19°C° 0 mm 5 mps 739 mmHg 54%
13:00 +19°C° 0 mm 5 mps 739 mmHg 53%
14:00 +19°C° 0 mm 4 mps 739 mmHg 52%
15:00 +19°C° 0 mm 3 mps 739 mmHg 55%
16:00 +19°C° 0 mm 3 mps 739 mmHg 58%
17:00 +18°C° 0 mm 2 mps 739 mmHg 61%
18:00 +18°C° 0 mm 2 mps 739 mmHg 64%
19:00 +17°C° 0 mm 2 mps 740 mmHg 68%
20:00 +16°C° 0 mm 2 mps 740 mmHg 71%
21:00 +15°C° 0 mm 2 mps 739 mmHg 73%
22:00 +14°C° 0 mm 2 mps 739 mmHg 75%
23:00 +13°C° 0 mm 2 mps 739 mmHg 77%

16 July, Thursday

Time Temperature Precipitation Wind Pressure Humidity
00:00 +13°C° 0 mm 2 mps 739 mmHg 77%
01:00 +12°C° 0 mm 2 mps 739 mmHg 77%
02:00 +12°C° 0 mm 2 mps 739 mmHg 77%
03:00 +12°C° 0 mm 2 mps 739 mmHg 78%
04:00 +12°C° 0 mm 2 mps 739 mmHg 80%
05:00 +12°C° 0 mm 2 mps 739 mmHg 81%
06:00 +13°C° 0 mm 3 mps 739 mmHg 76%
07:00 +16°C° 0 mm 3 mps 740 mmHg 71%
08:00 +17°C° 0 mm 3 mps 740 mmHg 66%
09:00 +19°C° 0 mm 3 mps 740 mmHg 61%
10:00 +20°C° 0 mm 4 mps 740 mmHg 56%
11:00 +21°C° 0 mm 4 mps 740 mmHg 51%
12:00 +22°C° 0 mm 4 mps 740 mmHg 50%
13:00 +22°C° 0 mm 4 mps 740 mmHg 49%
14:00 +23°C° 0 mm 4 mps 740 mmHg 48%
15:00 +22°C° 0 mm 4 mps 740 mmHg 50%
16:00 +22°C° 0 mm 3 mps 739 mmHg 52%
17:00 +22°C° 0 mm 3 mps 739 mmHg 54%
18:00 +20°C° 0 mm 3 mps 739 mmHg 63%
19:00 +18°C° 0 mm 2 mps 739 mmHg 71%
20:00 +17°C° 0 mm 2 mps 739 mmHg 79%
21:00 +16°C° 0 mm 1 mps 740 mmHg 82%
22:00 +15°C° 0 mm 1 mps 740 mmHg 84%
23:00 +14°C° 0 mm 1 mps 740 mmHg 87%

17 July, Friday

Time Temperature Precipitation Wind Pressure Humidity
00:00 +13°C° 0 mm 1 mps 740 mmHg 89%
01:00 +13°C° 0 mm 1 mps 740 mmHg 92%
02:00 +12°C° 0 mm 1 mps 740 mmHg 94%
03:00 +12°C° 0 mm 1 mps 740 mmHg 94%
04:00 +12°C° 0 mm 1 mps 740 mmHg 93%
05:00 +13°C° 0 mm 1 mps 740 mmHg 93%
06:00 +14°C° 0 mm 1 mps 741 mmHg 85%
07:00 +16°C° 0 mm 2 mps 741 mmHg 77%
08:00 +18°C° 0 mm 2 mps 741 mmHg 69%
09:00 +19°C° 0 mm 2 mps 741 mmHg 64%
10:00 +20°C° 0 mm 2 mps 741 mmHg 59%
11:00 +21°C° 0 mm 2 mps 741 mmHg 54%
12:00 +23°C° 0 mm 2 mps 741 mmHg 52%
13:00 +23°C° 0 mm 2 mps 741 mmHg 51%
14:00 +24°C° 0 mm 3 mps 741 mmHg 50%
15:00 +23°C° 0 mm 2 mps 741 mmHg 50%
16:00 +23°C° 0 mm 2 mps 741 mmHg 51%
17:00 +23°C° 0 mm 2 mps 741 mmHg 51%
18:00 +20°C° 0 mm 2 mps 741 mmHg 59%
19:00 +18°C° 0 mm 2 mps 741 mmHg 67%
20:00 +16°C° 0 mm 1 mps 741 mmHg 74%
21:00 +15°C° 0 mm 1 mps 742 mmHg 75%
22:00 +14°C° 0 mm 1 mps 742 mmHg 75%
23:00 +13°C° 0 mm 1 mps 742 mmHg 75%

18 July, Saturday

Time Temperature Precipitation Wind Pressure Humidity
00:00 +12°C° 0 mm 1 mps 742 mmHg 78%
01:00 +12°C° 0 mm 1 mps 743 mmHg 80%
02:00 +11°C° 0 mm 1 mps 743 mmHg 83%
03:00 +11°C° 0 mm 1 mps 743 mmHg 85%
04:00 +12°C° 0 mm 1 mps 743 mmHg 87%
05:00 +12°C° 0 mm 1 mps 744 mmHg 88%
06:00 +14°C° 0 mm 2 mps 744 mmHg 79%
07:00 +16°C° 0 mm 2 mps 744 mmHg 70%
08:00 +18°C° 0 mm 2 mps 744 mmHg 61%
09:00 +19°C° 0 mm 2 mps 744 mmHg 54%
10:00 +21°C° 0 mm 2 mps 744 mmHg 47%
11:00 +23°C° 0 mm 2 mps 745 mmHg 40%
12:00 +23°C° 0 mm 2 mps 745 mmHg 39%
13:00 +23°C° 0 mm 2 mps 744 mmHg 39%
14:00 +24°C° 0 mm 2 mps 744 mmHg 38%
15:00 +23°C° 0 mm 2 mps 744 mmHg 40%
16:00 +23°C° 0 mm 2 mps 744 mmHg 41%
17:00 +23°C° 0 mm 2 mps 744 mmHg 42%
18:00 +20°C° 0 mm 2 mps 744 mmHg 52%
19:00 +19°C° 0 mm 1 mps 744 mmHg 61%
20:00 +16°C° 0 mm 1 mps 744 mmHg 70%
21:00 +15°C° 0 mm 1 mps 745 mmHg 73%
22:00 +14°C° 0 mm 1 mps 745 mmHg 75%
23:00 +12°C° 0 mm 0 mps 745 mmHg 77%
Show more